Wind_Speed
13 12 10 9 10 9 8 8 8 7 7 5 3 3 2 3 4 4 5 6 7 6 6 6 6 6 7 6 5 4 3 3 3 2 2 2 3 5 5 6 6 6 7 8
16 13 12 13 13 12 11 10 9 9 9 7 6 5 4 5 5 5 5 5 5 6 6 6 6 6 8 6 5 4 4 5 5 4 3 4 4 5 6 6 7 8 8 9
16 14 15 16 15 14 13 12 10 11 12 11 8 6 6 5 6 6 6 6 6 6 6 7 7 8 8 8 7 5 5 5 6 5 4 4 5 6 7 7 9 9 9 10
18 17 17 17 16 16 15 14 14 13 13 12 11 9 8 8 7 7 7 8 8 7 7 9 9 10 9 8 7 6 6 6 6 6 6 6 6 7 8 8 9 10 10 11
18 18 18 18 17 18 18 18 17 15 14 14 13 12 10 10 10 10 10 10 10 9 9 10 10 10 9 9 8 8 8 8 8 8 8 7 8 8 9 10 10 10 11 12
20 20 20 19 19 20 20 19 19 18 17 16 15 15 13 12 12 12 12 12 11 11 11 10 10 9 9 9 9 9 8 9 9 9 9 9 9 10 11 11 11 11 12 13
21 21 21 20 20 21 21 21 20 20 20 19 17 17 15 14 13 13 13 13 12 11 11 11 11 10 10 10 10 10 10 10 9 9 9 10 10 11 12 12 13 13 14 15
21 21 20 21 21 21 22 21 21 21 20 19 19 19 17 16 14 14 14 14 14 12 11 11 12 11 11 12 11 11 11 11 11 11 11 12 11 12 13 14 15 15 16 16
22 21 20 21 22 22 22 22 21 22 22 22 21 20 19 18 16 16 16 16 15 13 12 12 13 14 13 13 14 13 13 12 12 12 13 14 14 15 16 17 17 18 17 18
22 22 21 21 22 22 22 22 22 23 24 24 23 21 19 18 18 17 17 16 16 15 14 14 15 15 14 14 15 16 15 15 15 15 15 15 16 17 18 19 19 19 20 20
23 23 22 22 23 23 22 22 23 24 24 25 25 23 20 19 18 18 19 19 17 16 15 16 16 15 14 15 15 16 16 16 17 17 18 18 18 19 20 20 20 20 21 21
24 25 24 24 23 23 24 23 24 25 25 26 26 24 21 21 19 19 20 19 19 18 17 17 17 16 16 17 16 17 17 17 18 18 18 18 19 19 19 20 21 21 22 22
25 26 26 25 25 25 25 25 25 26 26 26 25 24 21 21 21 20 20 20 20 19 18 17 17 17 18 17 17 18 18 18 19 19 19 19 20 21 21 21 21 21 21 22
26 27 26 26 25 25 25 26 26 26 27 27 25 24 22 22 22 22 21 21 20 20 19 18 17 18 19 19 20 20 19 19 21 21 21 21 21 22 22 23 23 23 22 22
27 28 27 27 26 26 27 26 27 27 27 27 26 26 24 23 24 24 23 22 22 21 20 19 20 20 20 21 21 21 21 20 21 22 22 23 23 23 22 23 23 23 23 24
29 29 28 28 28 27 27 26 26 27 28 28 27 27 25 25 25 24 24 23 22 21 20 20 21 21 21 22 23 22 22 22 23 23 24 24 24 24 23 24 24 25 25 26
30 30 30 30 29 29 28 26 26 27 28 28 28 26 27 26 25 25 25 24 22 21 21 21 22 22 23 23 23 23 24 24 24 23 23 24 25 25 25 25 26 26 27 28
29 30 31 30 30 31 29 27 26 26 27 28 27 26 26 25 25 24 24 23 23 23 23 22 22 23 23 24 24 24 24 25 24 24 24 25 25 25 26 27 27 28 28 29
28 29 29 29 30 30 29 27 27 26 26 26 26 26 25 25 25 24 23 23 23 24 23 23 23 23 24 24 24 25 25 25 25 25 25 26 26 27 28 28 29 29 30 30
27 27 28 29 29 29 27 27 27 26 26 26 25 25 26 26 26 24 24 24 24 24 24 24 25 25 25 25 25 25 26 26 26 26 27 28 29 29 29 29 29 29 29 30
28 28 29 28 28 28 27 26 26 26 26 26 26 26 26 27 27 26 26 25 25 25 25 25 24 25 26 25 25 25 27 27 28 28 29 29 29 29 29 29 29 29 30 30
29 29 28 28 28 27 26 25 26 26 25 25 25 25 25 25 26 26 25 25 24 24 25 25 25 25 26 25 25 26 27 27 28 28 28 28 28 28 28 29 30 30 30 30
30 29 28 27 26 25 25 25 26 26 26 26 26 25 25 26 26 26 26 25 25 25 26 25 25 25 25 26 26 27 27 26 27 27 27 27 28 28 28 29 29 29 29 29
31 30 29 27 27 26 26 26 27 26 27 26 26 26 25 25 26 26 25 25 25 26 26 25 25 25 26 27 27 27 27 27 28 28 28 28 28 28 28 28 28 28 29 29
30 30 29 28 28 27 27 27 27 27 27 27 27 27 26 26 26 26 25 24 25 25 25 25 26 26 26 26 27 28 28 29 29 28 27 27 28 28 28 28 28 28 29 29
29 29 29 29 29 29 27 27 26 26 26 26 26 26 26 26 26 25 25 25 25 25 25 25 26 27 27 27 28 29 29 29 28 28 29 29 28 28 28 28 27 28 29 29
Wind_Direction
234 234 234 235 237 242 254 260 259 264 277 285 298 321 343 348 348 358 3 8 11 11 10 9 5 1 357 358 358 4 5 355 351 338 312 303 319 324 315 313 311 297 293 294
233 233 234 241 244 244 248 255 258 259 267 277 283 288 302 325 337 342 348 352 1 354 350 348 343 341 342 338 333 327 325 323 326 325 307 305 308 315 318 318 314 310 300 298
236 236 237 242 244 245 245 251 255 257 260 269 275 280 295 307 316 323 324 329 333 331 327 322 324 323 328 325 319 317 307 306 311 314 305 302 308 311 312 311 309 308 304 300
235 235 239 245 243 245 246 252 255 257 261 265 272 279 288 289 297 304 308 316 315 311 313 310 314 315 318 315 313 306 305 305 300 298 297 299 303 303 301 299 302 300 300 301
234 233 238 244 245 247 249 251 254 257 261 266 273 280 283 290 294 294 298 305 307 299 301 306 307 308 311 315 312 309 305 302 294 289 287 293 296 301 299 297 295 294 300 304
236 236 239 242 245 248 249 250 253 257 260 264 271 279 283 286 289 292 294 297 301 301 302 302 306 312 317 317 313 311 304 302 295 295 293 288 294 299 300 297 294 295 300 303
235 236 240 242 242 245 248 251 255 259 259 263 269 272 279 283 285 287 290 291 295 299 303 304 307 309 311 312 310 308 304 299 299 301 300 296 294 295 297 296 295 295 298 300
236 235 239 242 245 246 248 252 256 261 262 264 265 269 276 280 282 283 288 289 294 293 294 295 298 299 299 305 305 303 300 295 296 300 300 298 291 293 296 295 294 294 296 299
238 235 235 242 245 246 245 249 254 258 260 263 265 268 274 275 276 281 287 288 292 290 289 289 289 288 288 295 300 300 297 292 290 291 293 293 289 291 294 295 298 294 293 294
237 238 236 240 245 245 249 248 250 253 259 264 268 270 273 274 276 282 286 286 288 290 290 288 284 283 283 287 293 295 294 292 294 296 295 296 293 292 293 293 296 297 295 293
239 241 240 241 244 247 249 249 251 254 258 264 268 270 272 274 276 281 282 282 288 285 284 285 285 282 286 289 292 293 296 298 296 294 295 296 295 293 292 293 295 295 296 294
241 245 244 245 245 247 249 250 251 255 260 263 267 270 270 274 277 279 282 284 285 285 285 287 285 282 285 289 290 291 295 299 300 297 293 293 294 297 297 296 295 296 298 298
245 248 249 248 248 250 252 254 255 257 259 263 266 269 271 274 277 279 279 280 281 283 287 285 289 288 286 287 290 292 292 294 296 298 295 293 295 296 296 295 294 295 296 297
247 250 253 254 255 254 256 257 258 261 262 263 266 269 271 274 275 278 278 278 280 283 287 286 288 291 290 290 289 290 292 293 294 295 297 296 296 295 295 294 293 294 294 295
250 253 256 257 257 257 257 259 262 263 263 264 265 267 270 272 274 277 278 277 278 281 283 284 287 290 289 288 287 290 289 290 291 293 295 295 294 294 295 296 294 295 296 296
253 254 256 257 258 258 258 258 261 262 261 263 267 268 268 270 274 276 277 279 277 280 281 282 286 288 290 290 288 289 288 290 292 293 295 296 295 294 297 298 297 296 297 298
254 254 254 255 256 258 257 258 261 261 262 265 267 268 268 271 275 276 278 278 277 280 281 282 285 288 292 292 290 290 288 289 292 295 296 296 295 295 295 296 297 296 295 296
257 258 258 259 258 258 260 260 261 262 263 265 266 266 267 272 274 276 278 281 280 280 281 282 285 289 289 289 288 288 286 287 289 291 292 294 295 296 294 294 294 294 294 295
258 259 260 260 260 261 261 262 261 262 263 264 264 265 267 271 274 276 278 278 278 280 281 283 284 288 288 285 286 288 289 288 288 289 291 292 294 295 294 293 293 294 294 294
255 257 258 260 261 261 262 263 262 262 263 265 267 267 267 269 271 275 278 277 276 278 280 283 284 285 285 285 286 289 291 290 290 289 290 292 293 293 293 293 293 294 294 294
251 253 255 258 260 260 260 261 261 261 263 265 266 267 268 269 272 275 277 278 278 277 278 282 285 286 286 287 288 290 292 291 292 291 292 293 294 293 293 294 294 294 295 295
250 251 252 256 258 260 261 260 260 261 261 263 265 268 269 269 271 272 274 275 277 279 281 283 285 286 288 292 293 293 295 294 293 292 293 293 294 293 294 296 295 294 295 295
252 251 252 254 257 258 259 259 260 261 261 263 266 267 267 267 269 271 272 274 277 280 281 282 285 288 289 291 292 294 296 295 295 294 295 295 294 295 296 296 297 296 297 296
251 251 254 255 255 256 257 259 261 262 264 264 265 266 266 267 268 269 270 273 275 276 278 280 282 286 289 291 291 292 294 294 295 296 295 295 296 298 297 298 299 299 298 298
251 252 252 253 254 255 257 258 259 260 263 264 264 265 266 267 267 268 270 273 275 277 278 281 283 284 286 288 289 290 292 294 294 296 298 299 300 300 299 298 298 298 300 299
251 253 253 253 253 255 256 257 259 262 264 264 265 266 267 268 268 268 269 273 275 276 278 280 282 284 286 286 288 290 291 293 293 294 296 298 298 298 297 297 297 298 300 299
Height
5898 5900 5901 5902 5903 5903 5903 5904 5904 5904 5903 5904 5904 5903 5902 5902 5901 5900 5899 5898 5897 5895 5894 5893 5892 5891 5889 5888 5887 5885 5884 5884 5883 5882 5882 5881 5881 5881 5880 5879 5879 5878 5878 5877
5896 5898 5900 5900 5900 5901 5902 5902 5903 5903 5902 5902 5902 5902 5901 5901 5900 5900 5899 5897 5896 5895 5893 5892 5891 5890 5889 5887 5886 5884 5883 5883 5882 5881 5881 5880 5880 5879 5878 5878 5877 5876 5875 5875
5893 5897 5897 5897 5898 5899 5900 5901 5901 5901 5900 5900 5901 5901 5900 5900 5899 5899 5898 5897 5896 5894 5893 5891 5890 5888 5887 5886 5884 5883 5882 5881 5880 5880 5879 5878 5878 5877 5876 5876 5875 5874 5873 5872
5890 5893 5894 5895 5896 5897 5898 5899 5899 5899 5898 5899 5899 5899 5899 5898 5898 5897 5897 5896 5895 5893 5891 5889 5888 5886 5885 5884 5882 5881 5880 5879 5878 5878 5877 5877 5876 5875 5874 5873 5872 5871 5870 5869
5887 5889 5890 5891 5893 5894 5895 5896 5896 5896 5896 5897 5897 5896 5898 5896 5896 5896 5895 5894 5893 5891 5890 5888 5887 5885 5883 5882 5881 5880 5878 5877 5876 5875 5875 5874 5874 5873 5872 5871 5870 5868 5867 5866
5883 5885 5886 5888 5890 5890 5891 5892 5893 5893 5893 5894 5894 5894 5895 5894 5894 5894 5893 5892 5891 5889 5888 5887 5885 5883 5882 5881 5879 5878 5877 5875 5874 5873 5872 5871 5871 5871 5869 5868 5867 5866 5864 5863
5879 5881 5882 5884 5885 5886 5887 5889 5889 5889 5889 5890 5891 5891 5892 5892 5892 5891 5890 5889 5888 5887 5886 5885 5883 5882 5881 5879 5878 5876 5875 5874 5872 5871 5870 5869 5868 5868 5867 5866 5864 5863 5861 5860
5874 5877 5878 5879 5881 5882 5883 5885 5886 5886 5886 5887 5887 5887 5889 5889 5889 5888 5887 5886 5885 5885 5884 5883 5881 5880 5878 5877 5876 5874 5873 5871 5870 5869 5868 5866 5865 5864 5863 5863 5861 5859 5858 5856
5869 5872 5874 5875 5876 5877 5878 5879 5881 5882 5882 5882 5882 5884 5885 5885 5885 5884 5884 5883 5882 5881 5881 5880 5878 5877 5876 5875 5873 5871 5870 5869 5867 5865 5865 5863 5862 5861 5860 5859 5857 5855 5854 5852
5864 5867 5870 5871 5871 5872 5874 5875 5876 5877 5876 5877 5878 5879 5880 5881 5881 5881 5880 5879 5879 5878 5877 5876 5874 5874 5872 5871 5870 5868 5866 5865 5864 5862 5861 5860 5859 5857 5856 5854 5853 5851 5849 5847
5860 5862 5864 5866 5866 5868 5869 5870 5871 5872 5872 5873 5873 5877 5876 5877 5877 5876 5876 5876 5875 5874 5873 5872 5870 5869 5869 5867 5866 5864 5862 5861 5860 5859 5858 5856 5855 5853 5851 5850 5848 5847 5844 5842
5855 5856 5858 5860 5862 5862 5864 5865 5866 5867 5867 5868 5868 5872 5871 5872 5872 5872 5871 5871 5870 5870 5869 5868 5867 5866 5865 5863 5862 5860 5859 5858 5856 5855 5853 5852 5850 5848 5847 5845 5843 5841 5839 5836
5850 5851 5853 5854 5857 5858 5858 5859 5861 5862 5862 5862 5863 5867 5866 5867 5867 5867 5867 5866 5865 5865 5864 5864 5863 5862 5861 5859 5858 5856 5855 5854 5852 5851 5849 5847 5845 5844 5842 5840 5838 5836 5834 5831
5844 5845 5847 5849 5850 5851 5852 5854 5855 5856 5856 5857 5858 5860 5861 5861 5862 5862 5862 5861 5860 5860 5860 5859 5858 5857 5856 5855 5854 5852 5850 5849 5847 5846 5844 5842 5840 5839 5837 5835 5832 5830 5828 5826
5838 5839 5840 5842 5843 5844 5846 5848 5849 5850 5850 5851 5853 5854 5855 5855 5856 5856 5856 5855 5855 5855 5854 5854 5853 5852 5851 5850 5848 5847 5845 5843 5842 5840 5838 5836 5834 5833 5831 5829 5827 5825 5822 5820
5831 5833 5834 5835 5836 5837 5839 5841 5842 5843 5844 5845 5846 5848 5848 5849 5849 5850 5850 5849 5849 5849 5849 5848 5847 5846 5845 5844 5842 5841 5839 5838 5836 5834 5832 5830 5828 5826 5824 5822 5820 5818 5816 5814
5824 5826 5827 5829 5830 5830 5832 5835 5836 5837 5838 5839 5839 5842 5841 5842 5843 5843 5844 5843 5843 5843 5843 5842 5841 5840 5839 5837 5836 5835 5833 5831 5829 5827 5825 5823 5821 5819 5818 5816 5814 5812 5809 5807
5818 5819 5820 5821 5823 5824 5828 5828 5829 5830 5831 5832 5833 5834 5835 5836 5836 5837 5837 5837 5837 5837 5836 5835 5834 5834 5832 5831 5829 5828 5826 5825 5823 5821 5819 5817 5815 5813 5811 5809 5807 5804 5802 5799
5810 5812 5813 5814 5815 5816 5820 5822 5823 5824 5824 5826 5826 5828 5829 5830 5830 5830 5831 5831 5830 5830 5829 5828 5828 5826 5825 5824 5822 5821 5819 5817 5816 5814 5812 5810 5808 5806 5804 5802 5799 5796 5794 5791
5804 5805 5806 5807 5808 5810 5814 5815 5815 5818 5818 5820 5820 5821 5822 5823 5824 5824 5824 5824 5824 5823 5822 5822 5821 5820 5818 5816 5815 5814 5812 5810 5808 5806 5805 5803 5800 5798 5796 5793 5791 5788 5786 5783
5797 5798 5799 5800 5801 5803 5806 5808 5809 5812 5814 5813 5814 5815 5815 5816 5817 5818 5817 5816 5816 5816 5815 5815 5814 5812 5810 5809 5808 5807 5805 5803 5801 5799 5797 5794 5792 5790 5787 5785 5783 5780 5777 5774
5789 5791 5792 5794 5795 5799 5799 5801 5803 5804 5805 5806 5807 5808 5808 5809 5809 5810 5809 5809 5809 5809 5808 5807 5806 5805 5803 5802 5801 5799 5797 5795 5792 5790 5789 5786 5784 5781 5779 5776 5774 5771 5768 5765
5781 5784 5785 5788 5790 5791 5792 5794 5796 5797 5798 5799 5800 5800 5801 5802 5802 5802 5802 5802 5802 5801 5801 5800 5799 5797 5796 5795 5794 5792 5789 5787 5785 5783 5780 5778 5775 5773 5770 5767 5765 5762 5760 5757
5773 5775 5778 5780 5782 5784 5786 5787 5788 5790 5791 5792 5793 5793 5794 5794 5795 5795 5795 5795 5795 5794 5793 5792 5791 5790 5788 5787 5786 5784 5782 5780 5778 5775 5772 5770 5768 5765 5762 5759 5757 5754 5752 5749
5766 5768 5770 5772 5775 5777 5779 5780 5781 5783 5784 5784 5785 5786 5786 5787 5787 5787 5787 5787 5787 5786 5785 5784 5784 5783 5781 5780 5778 5776 5774 5772 5770 5767 5764 5762 5759 5757 5754 5752 5749 5747 5744 5741
5759 5761 5763 5765 5767 5769 5771 5772 5774 5775 5776 5777 5778 5778 5779 5779 5779 5779 5779 5779 5779 5778 5777 5776 5776 5775 5774 5773 5771 5768 5766 5764 5762 5760 5757 5755 5752 5750 5747 5744 5742 5739 5736 5733